Weather History for Flagstaff, AZ

Change the Weather History Date:

Sunday, March 23, 2014

  Actual Average Record
Temperature  
Mean Temperature 41 °F 38 °F  
Max Temperature 59 °F 52 °F 67 °F (1990)
Min Temperature 23 °F 25 °F -1 °F (1973)
Degree Days  
Heating Degree Days 24 27  
Month to date heating degree days 566 659  
Since 1 July heating degree days 5167 5498  
Cooling Degree Days 0 0  
Month to date cooling degree days 0 0  
Year to date cooling degree days 0 0  
Moisture  
Dew Point 18 °F    
Average Humidity 52    
Maximum Humidity 88    
Minimum Humidity 15    
Precipitation  
Precipitation 0.00 in 0.06 in 1.09 in (1954)
Month to date precipitation 1.14 1.66  
Year to date precipitation 1.74 5.87  
Snow  
Snow 0.00 in 0.60 in 11.40 in (1964)
Month to date snowfall 1.1 16.7  
Since 1 July snowfall 34.6 89.9  
Snow Depth 0.00 in    
Sea Level Pressure  
Sea Level Pressure 30.09 in    
Wind  
Wind Speed 3 mph (SW)    
Max Wind Speed 20 mph    
Max Gust Speed 24 mph    
Visibility 10 miles    
Events      
T = Trace of Precipitation, MM = Missing Value Source: NWS Daily Summary

Daily Weather History Graph

Daily Weather History Graph

Search for Another Location

Airport:

Trip Planner

Search our weather history database for the weather conditions in past years. The results will help you decide how hot, cold, wet, or windy it might be!

Date:

Astronomy

Mar. 23, 2014 Rise Set
Actual Time 6:25 AM MST 6:40 PM MST
Civil Twilight 6:00 AM MST 7:06 PM MST
Nautical Twilight 5:31 AM MST 7:35 PM MST
Astronomical Twilight 5:01 AM MST 8:06 PM MST
Moon 12:50 AM MST (3/23) 11:21 AM MST (3/23)
Length of Visible Light 13h 05m
Length of Day
12h 14m
Waning Gibbous, 53% of the Moon is Illuminated
Mar 23
Waning Gibbous
Mar 23
Last Quarter
Mar 30
New
Apr 7
First Quarter
Apr 15
Full

Hourly Weather History & Observations

Time (MST) Temp. Windchill Dew Point Humidity Pressure Visibility Wind Dir Wind Speed Gust Speed Precip Events Conditions
12:57 AM 28.0 °F - 23.0 °F 81% 30.07 in 10.0 mi Calm Calm - N/A   Clear
1:57 AM 27.0 °F - 21.9 °F 81% 30.07 in 10.0 mi Calm Calm - N/A   Clear
2:57 AM 26.1 °F 21.9 °F 21.0 °F 81% 30.08 in 10.0 mi NNE 3.5 mph - N/A   Clear
3:57 AM 25.0 °F - 21.0 °F 85% 30.10 in 10.0 mi Calm Calm - N/A   Clear
4:57 AM 24.1 °F - 21.0 °F 88% 30.12 in 10.0 mi Calm Calm - N/A   Clear
5:57 AM 24.1 °F - 19.0 °F 81% 30.13 in 10.0 mi Calm Calm - N/A   Clear
6:57 AM 24.1 °F - 19.9 °F 84% 30.17 in 10.0 mi Calm Calm - N/A   Clear
7:57 AM 36.0 °F - 27.0 °F 70% 30.14 in 10.0 mi Calm Calm - N/A   Clear
8:57 AM 46.9 °F - 25.0 °F 42% 30.10 in 10.0 mi Calm Calm - N/A   Clear
9:57 AM 50.0 °F - 19.9 °F 31% 30.11 in 10.0 mi South 4.6 mph - N/A   Clear
10:57 AM 55.0 °F - 17.1 °F 23% 30.09 in 10.0 mi WSW 8.1 mph - N/A   Partly Cloudy
11:57 AM 57.0 °F - 10.9 °F 16% 30.09 in 10.0 mi Variable 5.8 mph - N/A   Clear
12:57 PM 57.9 °F - 12.0 °F 16% 30.08 in 10.0 mi North 11.5 mph - N/A   Clear
1:57 PM 57.9 °F - 12.0 °F 16% 30.05 in 10.0 mi WSW 11.5 mph - N/A   Partly Cloudy
2:52 PM 57.2 °F - 17.6 °F 21% 30.16 in 10.0 mi SW 17.3 mph 20.7 mph N/A   Partly Cloudy
2:57 PM 57.9 °F - 17.1 °F 20% 30.04 in 10.0 mi SSW 12.7 mph 24.2 mph N/A   Partly Cloudy
3:57 PM 55.9 °F - 17.1 °F 22% 30.05 in 10.0 mi SW 6.9 mph 18.4 mph N/A   Clear
4:57 PM 55.9 °F - 17.1 °F 22% 30.06 in 10.0 mi South 8.1 mph - N/A   Clear
5:57 PM 54.0 °F - 12.9 °F 20% 30.08 in 10.0 mi West 5.8 mph - N/A   Clear
6:57 PM 48.0 °F - 15.1 °F 27% 30.12 in 10.0 mi Calm Calm - N/A   Clear
7:57 PM 45.0 °F - 16.0 °F 31% 30.09 in 10.0 mi Calm Calm - N/A   Clear
8:57 PM 39.9 °F - 17.1 °F 40% 30.08 in 10.0 mi Calm Calm - N/A   Clear
9:57 PM 39.0 °F - 17.1 °F 41% 30.07 in 10.0 mi Calm Calm - N/A   Clear
10:57 PM 34.0 °F - 15.1 °F 46% 30.08 in 10.0 mi Calm Calm - N/A   Clear
11:57 PM 30.9 °F - 15.1 °F 52% 30.08 in 10.0 mi Calm Calm - N/A   Clear